Date String (YYYY-MM-DD hh:mm:ss) UTC,Instrument flags,absolute air pressure of the measurement (hPa),sample flow rate (lpm),inlet stack bypass flow (lpm),air temperature of the measurement (°C),ambient temperature measured by the external sensor (°C),aerosol sample conditioner tube jacket temperature (°C),OPC LED temperature (°C),internal box temperature (°C),relative humidity of the measurement (%),span deviation,mass concentration of particles derived from Lorenz-Mie calculation of OPC scattering (μg/m³),mass concentration of particles derived from Lorenz-Mie calculation of OPC scattering (μg/m³),mass concentration of particles derived from Lorenz-Mie calculation of OPC scattering (μg/m³)
DateTimeUTC,F1_M11,P_M11,Q1_M11,Q2_M11,T1_M11,T2_M11,T3_M11,T4_M11,T5_M11,U1_M11,ZSPAN_M11,X0_M11,X2_M11,X1_M11
2024-05-22 23:00:00,SystemResetWarning,0822.2,4.99,000.00,030.4,029.7,000.0,038.6,032.0,007.8,0000.0,0007.72,0001.80,0001.32
2024-05-22 23:01:00,SystemResetWarning,0822.1,5.00,000.00,030.4,029.7,000.0,038.6,032.1,007.7,0000.0,0007.83,0001.82,0001.32
2024-05-22 23:02:00,SystemResetWarning,0822.1,5.01,000.00,030.4,029.7,000.0,038.6,032.1,007.4,0000.0,0007.56,0001.86,0001.32
2024-05-22 23:03:00,SystemResetWarning,0822.2,5.01,000.00,030.4,029.8,000.0,038.7,032.1,007.3,0000.0,0007.35,0001.89,0001.32
2024-05-22 23:04:00,SystemResetWarning,0822.3,5.00,000.00,030.4,029.8,000.0,038.7,032.1,007.7,0000.0,0006.38,0001.92,0001.32
2024-05-22 23:05:00,SystemResetWarning,0822.3,5.00,000.00,030.4,029.8,000.0,038.7,032.1,007.9,0000.0,0005.60,0001.89,0001.32
2024-05-22 23:06:00,SystemResetWarning,0822.4,4.99,000.00,030.4,029.8,000.0,038.7,032.1,007.8,0000.0,0005.67,0001.91,0001.32
2024-05-22 23:07:00,SystemResetWarning,0822.4,5.00,000.00,030.5,029.8,000.0,038.7,032.1,007.2,0000.0,0005.67,0001.95,0001.34
2024-05-22 23:08:00,SystemResetWarning,0822.4,5.00,000.00,030.5,029.9,000.0,038.7,032.2,007.0,0000.0,0004.28,0001.99,0001.38
2024-05-22 23:09:00,SystemResetWarning,0822.3,5.00,000.00,030.5,029.9,000.0,038.8,032.2,006.8,0000.0,0003.48,0002.01,0001.40
2024-05-22 23:10:00,SystemResetWarning,0822.3,5.00,000.00,030.5,029.9,000.0,038.8,032.2,006.7,0000.0,0003.60,0002.07,0001.42
2024-05-22 23:11:00,SystemResetWarning,0822.3,5.01,000.00,030.5,029.9,000.0,038.8,032.2,006.5,0000.0,0003.62,0002.12,0001.45
2024-05-22 23:12:00,SystemResetWarning,0822.3,5.00,000.00,030.5,029.9,000.0,038.8,032.2,006.6,0000.0,0003.27,0002.10,0001.49
2024-05-22 23:13:00,SystemResetWarning,0822.2,4.99,000.00,030.6,029.9,000.0,038.8,032.2,007.0,0000.0,0003.20,0002.09,0001.53
2024-05-22 23:14:00,SystemResetWarning,0822.2,5.00,000.00,030.6,030.0,000.0,038.8,032.3,007.0,0000.0,0003.19,0002.11,0001.58
2024-05-22 23:15:00,SystemResetWarning,0822.3,5.00,000.00,030.6,030.0,000.0,038.8,032.3,006.6,0000.0,0003.59,0002.13,0001.63
2024-05-22 23:16:00,SystemResetWarning,0822.3,5.00,000.00,030.6,030.0,000.0,038.9,032.3,006.6,0000.0,0003.70,0002.18,0001.67
2024-05-22 23:17:00,SystemResetWarning,0822.3,5.00,000.00,030.6,030.0,000.0,038.9,032.3,006.7,0000.0,0004.47,0002.22,0001.72
2024-05-22 23:18:00,SystemResetWarning,0822.2,5.00,000.00,030.6,030.0,000.0,038.9,032.3,006.8,0000.0,0004.71,0002.23,0001.73
2024-05-22 23:19:00,SystemResetWarning,0822.3,5.00,000.00,030.6,030.0,000.0,038.9,032.3,007.0,0000.0,0004.67,0002.22,0001.75
2024-05-22 23:20:00,SystemResetWarning,0822.3,4.99,000.00,030.7,030.0,000.0,038.9,032.3,007.3,0000.0,0004.70,0002.24,0001.75
2024-05-22 23:21:00,SystemResetWarning,0822.3,5.00,000.00,030.7,030.1,000.0,038.9,032.3,006.8,0000.0,0004.85,0002.28,0001.77
2024-05-22 23:22:00,SystemResetWarning,0822.3,5.00,000.00,030.7,030.1,000.0,039.0,032.4,007.1,0000.0,0004.87,0002.30,0001.78
2024-05-22 23:23:00,SystemResetWarning,0822.4,5.00,000.00,030.7,030.1,000.0,039.0,032.4,007.0,0000.0,0004.91,0002.32,0001.79
2024-05-22 23:24:00,SystemResetWarning,0822.4,5.00,000.00,030.7,030.1,000.0,039.0,032.4,006.9,0000.0,0004.96,0002.34,0001.79
2024-05-22 23:25:00,SystemResetWarning,0822.4,5.02,000.00,030.7,030.1,000.0,039.0,032.4,006.9,0000.0,0005.45,0002.41,0001.80
2024-05-22 23:26:00,SystemResetWarning,0822.3,5.01,000.00,030.8,030.1,000.0,039.0,032.4,006.8,0000.0,0006.09,0002.44,0001.80
2024-05-22 23:27:00,SystemResetWarning,0822.3,4.99,000.00,030.8,030.1,000.0,039.0,032.4,007.0,0000.0,0006.23,0002.47,0001.80
2024-05-22 23:28:00,SystemResetWarning,0822.3,4.99,000.00,030.8,030.2,000.0,039.0,032.5,006.9,0000.0,0006.38,0002.49,0001.80
2024-05-22 23:29:00,SystemResetWarning,0822.4,5.01,000.00,030.8,030.2,000.0,039.1,032.5,006.8,0000.0,0006.64,0002.51,0001.83
2024-05-22 23:30:00,SystemResetWarning,0822.3,5.01,000.00,030.8,030.2,000.0,039.1,032.5,006.7,0000.0,0006.67,0002.54,0001.85
2024-05-22 23:31:00,SystemResetWarning,0822.3,5.00,000.00,030.8,030.2,000.0,039.1,032.5,006.7,0000.0,0006.76,0002.57,0001.86
2024-05-22 23:32:00,SystemResetWarning,0822.4,4.98,000.00,030.8,030.2,000.0,039.1,032.5,006.8,0000.0,0006.73,0002.54,0001.87
2024-05-22 23:33:00,SystemResetWarning,0822.2,5.01,000.00,030.8,030.2,000.0,039.1,032.5,006.7,0000.0,0006.83,0002.57,0001.89
2024-05-22 23:34:00,SystemResetWarning,0822.3,5.01,000.00,030.8,030.2,000.0,039.1,032.5,006.6,0000.0,0007.35,0002.63,0001.92
2024-05-22 23:35:00,SystemResetWarning,0822.2,4.99,000.00,030.8,030.2,000.0,039.1,032.5,006.8,0000.0,0007.42,0002.63,0001.92
2024-05-22 23:36:00,SystemResetWarning,0822.2,4.99,000.00,030.9,030.2,000.0,039.1,032.5,006.8,0000.0,0007.44,0002.66,0001.94
2024-05-22 23:37:00,SystemResetWarning,0822.2,5.00,000.00,030.9,030.2,000.0,039.1,032.5,006.9,0000.0,0006.86,0002.64,0001.96
2024-05-22 23:38:00,SystemResetWarning,0822.1,5.01,000.00,030.9,030.2,000.0,039.1,032.6,007.0,0000.0,0006.47,0002.65,0001.97
2024-05-22 23:39:00,SystemResetWarning,0822.1,5.01,000.00,030.9,030.3,000.0,039.2,032.6,006.8,0000.0,0007.65,0002.68,0001.98
2024-05-22 23:40:00,SystemResetWarning,0822.1,5.00,000.00,030.9,030.3,000.0,039.2,032.6,007.0,0000.0,0007.03,0002.72,0001.99
2024-05-22 23:41:00,SystemResetWarning,0822.1,4.98,000.00,030.9,030.3,000.0,039.2,032.6,007.0,0000.0,0006.87,0002.75,0001.99
2024-05-22 23:42:00,SystemResetWarning,0822.1,5.01,000.00,030.9,030.3,000.0,039.2,032.6,006.4,0000.0,0006.95,0002.76,0002.00
2024-05-22 23:43:00,SystemResetWarning,0822.1,5.02,000.00,031.0,030.3,000.0,039.2,032.6,006.3,0000.0,0007.02,0002.84,0002.03
2024-05-22 23:44:00,SystemResetWarning,0822.1,4.99,000.00,031.0,030.3,000.0,039.2,032.6,006.3,0000.0,0006.85,0002.82,0002.04
2024-05-22 23:45:00,SystemResetWarning,0822.1,4.98,000.00,031.0,030.3,000.0,039.2,032.6,006.4,0000.0,0006.53,0002.81,0002.05
2024-05-22 23:46:00,SystemResetWarning,0822.1,5.01,000.00,031.0,030.3,000.0,039.3,032.6,006.5,0000.0,0006.33,0002.81,0002.05
2024-05-22 23:47:00,SystemResetWarning,0822.1,5.01,000.00,031.0,030.3,000.0,039.3,032.6,006.8,0000.0,0006.34,0002.82,0002.06
2024-05-22 23:48:00,SystemResetWarning,0822.1,5.01,000.00,031.0,030.3,000.0,039.3,032.6,006.7,0000.0,0006.26,0002.80,0002.06
2024-05-22 23:49:00,SystemResetWarning,0822.1,4.99,000.00,031.0,030.3,000.0,039.3,032.6,006.6,0000.0,0006.09,0002.75,0002.06
2024-05-22 23:50:00,SystemResetWarning,0822.1,4.98,000.00,031.0,030.3,000.0,039.3,032.6,006.9,0000.0,0005.00,0002.72,0002.06
2024-05-22 23:51:00,SystemResetWarning,0822.1,5.00,000.00,031.0,030.3,000.0,039.3,032.7,006.8,0000.0,0005.21,0002.68,0002.06
2024-05-22 23:52:00,SystemResetWarning,0822.1,5.01,000.00,031.0,030.4,000.0,039.3,032.7,006.8,0000.0,0005.04,0002.64,0002.07
2024-05-22 23:53:00,SystemResetWarning,0822.1,5.00,000.00,031.0,030.4,000.0,039.3,032.7,006.8,0000.0,0004.85,0002.60,0002.06
2024-05-22 23:54:00,SystemResetWarning,0822.1,4.99,000.00,031.1,030.4,000.0,039.3,032.7,007.0,0000.0,0004.73,0002.56,0002.04
2024-05-22 23:55:00,SystemResetWarning,0822.1,4.99,000.00,031.1,030.4,000.0,039.3,032.7,006.9,0000.0,0004.68,0002.54,0002.03
2024-05-22 23:56:00,SystemResetWarning,0822.1,5.00,000.00,031.1,030.5,000.0,039.4,032.8,006.7,0000.0,0004.65,0002.52,0002.00
2024-05-22 23:57:00,SystemResetWarning,0822.1,5.00,000.00,031.1,030.5,000.0,039.4,032.8,006.9,0000.0,0004.62,0002.52,0002.00
2024-05-22 23:58:00,SystemResetWarning,0822.1,5.00,000.00,031.1,030.5,000.0,039.4,032.8,007.2,0000.0,0004.74,0002.57,0002.00
2024-05-22 23:59:00,SystemResetWarning,0822.0,5.00,000.00,031.1,030.5,000.0,039.4,032.8,007.1,0000.0,0004.80,0002.58,0001.98
